Powrót do katalogu

THORAD AGENA D DEB

AktywnySSO
NORAD 5067·DEBRIS·🇺🇸 United States

Wystrzelony Apr 8, 1970 z Vandenberg Space Force Base

Loading…

Następne Przeloty (najbliższe 24 godziny)

TLE

ŚwieżeSource: Space-Track

Epoka: Sep 14, 2026, 22:32 UTC

1 05067U 70025JM  26257.93891354  .00000265  00000-0  38354-3 0  9995
2 05067  99.9876 155.5710 0007187  24.5216  34.8917 13.65379895797578

Śledź THORAD AGENA D DEB w czasie rzeczywistym z AllMySat

Download on the App Store